Wind_Speed
22 22 21 21 20 19 19 18 18 18 18 17 16 15 15 15 15 17 18 19 21 21 22 22 22 23 23 23 22 21 21 20 19 19 18 18 18 19 21 22 23 25 25 25 26 27 30 34 38 40 41 43 46 48 51 53 53 52 51 49 48 47 44 44 45 44 42 41 39 37 34 34 34 33 32 31 30 29 30 32 33 33 32 31 31
24 24 23 23 23 22 22 22 21 21 20 19 19 18 18 17 17 17 17 18 19 20 21 21 22 23 23 24 24 23 23 22 21 20 19 19 19 19 20 21 23 24 25 26 26 26 28 31 34 35 37 40 43 44 47 50 51 53 54 53 53 52 49 47 46 45 44 44 43 40 38 36 36 35 34 33 31 30 31 32 34 34 33 32 33
23 23 23 23 24 24 24 25 25 25 25 23 22 21 20 19 19 19 19 19 20 21 22 22 23 23 23 24 24 24 24 23 22 21 20 20 19 19 20 21 23 24 25 26 26 27 28 31 32 33 34 37 40 42 44 46 48 50 52 53 54 55 54 53 52 50 48 47 46 46 44 40 39 37 36 34 33 32 32 32 33 34 34 34 35
20 21 22 22 23 24 25 26 27 28 28 28 27 26 25 23 23 22 22 22 21 21 22 23 24 25 25 25 25 24 24 24 24 23 23 22 22 21 21 21 23 24 25 26 26 27 29 31 32 32 33 36 38 39 41 43 45 47 49 51 53 54 54 54 54 53 51 49 49 49 48 46 43 40 37 36 35 34 34 34 34 35 35 35 36
18 19 20 21 22 23 24 25 26 28 29 30 31 31 30 30 29 28 27 26 25 24 24 23 24 25 25 26 26 26 25 25 24 24 24 24 24 23 22 22 23 24 25 26 26 27 29 31 32 32 33 36 38 39 39 40 42 44 47 49 50 52 52 53 53 53 52 52 51 49 48 47 45 42 40 40 39 37 36 36 36 36 37 37 38
19 20 21 22 23 24 25 26 27 28 29 31 32 32 33 33 34 34 33 31 29 28 27 26 25 24 24 25 26 27 27 26 25 24 24 24 25 25 24 24 23 23 24 25 26 27 29 31 32 32 34 37 39 39 39 40 40 42 44 46 47 48 50 51 52 51 52 53 53 51 50 50 48 46 45 43 42 41 40 40 39 38 39 40 41
20 21 22 23 24 26 27 28 29 30 31 32 33 34 35 35 36 36 37 37 36 34 32 31 29 28 27 26 26 26 27 27 26 25 24 24 24 25 26 26 26 26 25 25 25 27 29 31 32 33 34 37 38 39 39 40 41 41 42 43 44 45 47 48 49 50 51 52 53 53 52 52 51 50 48 45 44 44 43 43 43 42 42 43 42
21 22 23 25 26 27 29 30 31 32 33 34 35 36 37 38 38 39 39 40 40 40 39 38 36 34 32 30 29 28 28 28 27 27 27 26 25 26 26 27 28 29 29 28 27 27 28 29 31 33 34 36 37 38 39 40 41 43 43 42 42 43 44 46 47 48 50 51 53 54 53 52 52 52 50 48 48 49 48 46 45 44 43 43 42
23 24 25 27 29 30 32 33 34 35 36 37 37 38 39 40 41 42 43 43 43 43 43 43 43 41 39 37 35 34 32 31 29 29 29 28 28 28 28 29 29 30 31 31 31 30 30 30 30 31 33 35 37 37 38 39 41 43 44 42 42 42 43 45 45 47 48 50 52 53 53 53 54 55 55 55 56 55 51 48 47 45 43 42 43
24 26 29 32 34 35 36 37 39 40 40 40 40 40 41 42 43 44 45 45 46 46 47 47 47 47 46 44 43 41 39 37 34 32 31 30 30 30 30 31 31 31 32 33 33 33 33 32 32 31 31 33 35 36 37 38 39 42 43 42 42 42 43 45 46 47 49 50 51 53 55 56 57 59 61 61 60 56 53 50 49 47 45 44 46
26 30 34 37 38 39 40 41 43 44 45 45 45 44 44 44 44 45 45 46 47 48 49 50 50 51 51 50 49 48 46 43 41 39 37 34 33 32 33 33 33 34 34 35 35 35 34 34 34 33 33 33 33 34 36 37 39 40 40 41 42 44 44 45 47 48 49 51 52 53 56 59 60 60 60 60 59 57 55 52 50 49 49 49 50
28 34 38 39 40 41 41 43 45 47 48 48 48 48 48 48 47 47 47 47 47 47 49 50 51 52 53 54 54 53 51 49 47 46 44 41 38 37 36 35 35 36 36 37 37 37 36 36 35 35 35 34 34 33 33 35 37 38 38 38 40 43 45 47 48 49 50 51 52 53 56 59 60 59 60 60 59 57 55 52 51 51 52 52 52
34 38 40 40 41 42 42 43 45 47 48 48 48 48 49 50 50 50 50 49 49 49 49 50 51 52 53 55 56 56 56 54 52 50 49 47 45 43 42 40 39 39 39 39 39 39 39 38 37 37 36 35 35 34 34 34 34 36 38 38 39 40 43 46 49 50 50 51 53 55 58 59 58 58 60 59 58 57 55 54 53 53 54 54 53
38 41 42 42 43 43 43 44 46 47 48 48 48 48 49 49 49 50 51 51 53 53 53 53 53 53 54 55 57 58 58 58 57 55 53 51 50 49 48 47 45 44 42 41 41 41 41 40 40 40 39 36 35 35 35 34 34 34 36 38 40 40 40 42 45 49 51 53 55 57 59 58 57 57 57 56 57 58 58 56 55 54 54 53 51
40 41 43 44 45 45 45 45 47 48 49 49 49 49 48 48 48 49 49 51 54 56 57 57 58 57 57 57 58 59 59 59 60 60 58 56 55 53 53 53 52 51 48 45 44 43 42 41 42 42 42 40 38 36 35 34 34 35 36 38 40 41 41 42 43 46 49 53 56 58 58 57 56 56 55 56 57 57 56 54 53 53 53 53 53
41 43 44 46 47 47 47 47 48 50 50 49 49 49 48 49 50 50 49 51 54 55 57 59 60 60 61 60 60 61 61 60 60 61 62 61 59 56 55 56 56 56 55 52 49 47 45 43 43 43 43 43 41 38 35 33 34 36 37 38 39 41 43 44 44 44 45 48 53 57 58 55 54 54 55 55 55 53 51 50 51 52 53 54 55
45 47 48 49 49 49 48 48 50 51 50 49 49 50 50 51 52 51 50 52 54 55 56 57 58 60 62 63 63 63 64 63 62 62 63 63 62 60 57 57 58 59 59 59 56 53 50 47 46 45 45 44 44 41 37 34 34 36 38 39 40 42 43 43 44 44 43 43 46 51 54 55 54 54 54 56 55 52 51 52 54 55 55 55 55
49 49 50 50 49 49 49 49 50 50 50 49 49 51 52 53 53 52 51 52 55 56 56 56 58 59 60 62 63 64 66 67 65 64 64 64 64 63 59 56 56 57 59 61 61 59 56 53 49 48 47 46 44 43 40 37 35 36 38 39 40 42 43 43 44 44 43 42 43 44 47 51 54 54 54 55 56 55 55 56 57 56 56 56 56
50 50 50 50 50 50 49 50 50 49 50 50 51 52 54 55 55 54 53 53 55 56 56 55 57 58 59 60 61 63 66 69 69 68 67 66 66 64 60 57 57 58 60 61 62 62 60 58 54 51 50 48 46 44 42 40 37 37 38 39 41 43 42 42 44 45 44 44 44 44 44 48 52 54 54 54 55 56 57 57 57 57 58 58 56
50 50 51 51 51 50 50 50 50 50 50 52 53 53 54 54 54 53 52 52 53 54 55 54 56 58 59 59 61 62 64 67 69 69 68 68 67 65 62 59 59 61 62 61 61 61 61 60 59 56 52 50 49 46 44 42 40 39 38 40 43 43 41 41 44 45 45 45 44 43 44 46 49 53 54 54 55 56 57 56 56 58 59 57 57
49 50 51 51 51 51 51 50 50 51 51 52 52 53 51 50 50 49 49 49 49 50 52 52 53 56 58 57 58 60 60 62 65 66 66 66 67 66 63 61 61 60 61 61 60 60 61 61 61 60 56 52 50 48 46 44 42 41 40 41 43 42 40 40 42 43 44 44 43 42 43 44 46 50 54 56 56 57 58 57 57 58 58 57 58
49 50 51 51 52 52 52 51 51 52 52 51 51 51 49 46 45 45 45 45 46 46 48 47 48 52 53 53 53 55 56 56 58 59 60 60 61 60 59 59 59 57 57 59 60 61 63 63 62 61 59 55 52 50 47 45 43 41 42 43 42 40 39 40 41 42 43 43 42 43 43 44 46 48 51 55 56 57 58 58 57 58 57 57 57
48 50 51 52 52 52 52 51 51 50 49 48 48 48 47 45 43 42 42 42 43 44 45 44 45 48 50 50 50 50 50 50 49 50 50 49 50 51 51 52 52 52 53 56 58 60 63 64 63 62 60 57 55 52 48 46 44 42 42 43 42 40 38 39 41 43 44 44 43 44 45 45 47 48 50 52 54 54 55 55 56 56 56 55 55
48 49 50 51 51 51 50 50 49 47 47 46 46 45 44 43 42 41 41 41 42 43 44 44 45 47 49 50 50 48 47 46 45 44 43 44 44 45 46 46 47 47 49 53 55 57 60 62 63 62 60 59 57 54 49 47 45 43 43 42 41 38 38 39 41 43 44 44 44 46 47 47 47 48 49 50 50 51 52 52 52 54 55 55 54
48 49 49 50 49 49 49 47 46 44 43 42 42 43 42 42 42 41 41 41 42 44 45 44 45 46 48 49 50 48 45 44 43 41 40 41 42 42 43 43 43 44 46 50 52 54 56 58 60 60 59 57 56 53 49 47 46 45 44 42 39 37 38 40 41 42 44 45 46 47 48 47 47 47 46 46 46 49 51 51 51 52 53 53 53
47 48 48 48 48 47 46 45 43 42 41 41 41 42 42 42 42 41 41 42 43 44 45 45 46 47 48 49 49 48 46 44 44 43 42 42 43 42 42 41 40 39 42 45 48 50 51 52 54 56 55 54 52 50 48 47 46 45 42 40 37 37 38 40 41 43 45 46 47 48 47 46 44 44 44 44 46 48 50 51 51 51 52 52 52
46 47 47 47 46 44 44 44 44 44 43 42 42 42 41 41 41 41 42 42 43 44 45 46 46 47 49 51 51 51 50 48 47 46 46 46 47 44 40 38 37 37 37 37 38 42 45 47 49 49 49 49 48 48 46 45 44 43 41 39 38 38 40 41 42 44 46 46 46 46 45 43 43 43 44 45 46 48 49 50 50 51 51 51 51
45 46 45 44 43 43 44 45 46 46 45 43 42 42 41 41 40 40 40 41 43 44 45 46 47 48 50 51 52 53 52 49 47 47 48 48 46 43 40 40 40 39 38 34 33 36 39 42 44 45 46 46 45 45 44 43 43 42 41 40 39 40 41 41 42 43 45 45 44 43 42 42 43 44 44 45 45 47 48 49 49 49 50 50 51
44 44 43 43 44 45 45 46 46 46 45 44 43 42 40 40 39 40 40 39 39 41 44 46 48 48 50 51 50 52 52 50 48 49 49 47 44 43 43 44 44 43 41 39 38 37 36 36 38 41 43 44 44 43 43 43 42 41 41 41 40 40 41 42 43 44 45 45 44 43 42 41 43 43 43 44 45 46 48 48 48 48 49 50 50
43 43 42 43 45 46 46 46 45 45 45 45 44 43 41 39 37 38 39 38 36 37 40 43 44 45 48 49 48 49 51 50 49 48 47 46 45 44 44 44 44 45 44 43 42 41 39 37 38 39 40 40 40 41 42 42 42 41 41 41 40 40 41 42 44 44 45 45 44 44 43 42 42 43 43 43 44 45 46 47 48 48 48 49 49
42 42 42 44 45 45 46 46 45 44 44 44 44 44 44 42 39 38 37 37 37 36 37 39 40 41 43 46 47 46 46 46 44 43 43 42 42 41 41 42 43 44 43 43 43 43 42 39 37 36 36 35 36 37 39 39 39 40 40 39 39 40 40 41 43 44 44 44 44 44 44 43 43 43 44 44 44 45 46 46 47 48 48 48 49
39 41 42 43 44 45 46 45 44 44 43 43 42 43 44 45 45 43 40 38 38 38 38 38 39 38 39 41 43 44 43 42 40 39 39 38 38 38 38 39 40 40 40 40 43 45 43 40 37 34 34 34 34 33 34 35 36 36 36 36 37 38 40 41 42 43 44 44 43 43 44 44 44 43 44 44 45 46 47 47 47 48 47 47 47
37 39 41 43 44 45 44 44 43 42 42 42 42 42 43 45 47 48 46 44 42 41 40 39 39 39 38 37 38 39 39 37 36 36 36 35 36 36 35 34 35 35 36 39 43 44 42 41 39 36 33 34 34 31 30 32 33 33 33 34 35 37 38 39 41 41 42 42 42 43 44 45 44 43 44 45 46 46 47 48 48 47 47 46 46
35 37 39 41 43 44 43 43 42 41 40 40 41 41 42 43 45 47 48 48 47 46 43 40 38 39 40 38 36 34 33 33 34 35 35 35 35 33 32 33 33 32 32 36 40 43 42 42 42 39 34 30 30 29 28 28 30 31 32 33 35 36 36 37 39 40 41 41 41 43 44 45 44 44 44 45 46 47 47 48 48 47 47 46 46
34 36 38 39 41 42 42 41 41 40 39 39 40 40 41 42 43 44 46 47 48 49 48 43 39 38 40 40 38 35 33 33 33 32 32 32 31 28 29 32 34 33 32 32 33 36 38 39 41 41 36 31 29 29 27 26 27 30 31 33 34 35 35 36 37 39 40 40 41 42 44 44 44 45 45 46 47 47 48 48 48 48 47 46 46
34 35 36 37 38 39 40 40 39 38 38 38 39 39 40 41 42 43 44 44 45 47 48 47 43 39 37 36 36 36 35 34 32 30 29 28 26 25 27 30 33 34 35 34 31 31 33 35 37 39 37 33 31 29 26 23 25 27 30 32 34 34 34 35 36 37 39 40 40 41 43 44 45 46 46 47 47 47 48 48 48 47 47 46 46
34 34 35 36 37 38 38 38 38 37 36 36 37 38 39 40 41 42 42 43 44 45 46 47 45 42 36 33 34 36 36 34 31 29 28 28 27 28 29 30 31 32 30 30 32 33 33 32 32 34 36 34 31 26 23 23 25 27 29 32 33 33 34 34 35 36 37 38 39 41 43 45 46 47 47 47 46 46 47 47 47 46 45 45 45
32 33 33 34 35 36 36 36 36 35 34 34 35 36 37 39 40 40 41 42 43 44 44 45 45 43 40 37 35 34 35 35 33 30 28 29 30 30 30 30 31 32 29 25 25 29 31 30 26 25 28 31 29 26 24 24 25 27 30 32 32 32 32 33 34 35 36 37 39 41 43 45 46 46 46 45 45 45 45 45 45 44 44 43 43
30 31 31 32 33 33 33 34 34 34 33 33 34 35 36 37 37 39 40 41 41 42 42 43 42 42 41 39 37 36 37 39 38 35 31 29 29 29 29 31 31 31 29 27 23 19 22 25 24 23 25 27 26 24 23 23 24 27 29 31 32 32 32 32 33 35 36 37 39 40 42 44 44 44 44 44 43 44 44 44 44 43 42 42 41
30 30 30 30 31 31 31 31 32 32 32 32 32 33 33 34 35 36 37 38 39 39 39 40 40 40 39 37 36 36 36 36 35 33 31 29 27 25 25 26 27 26 24 23 20 17 18 21 22 24 27 25 21 18 18 20 24 27 29 30 31 32 32 32 33 34 35 37 39 40 41 42 42 42 42 42 41 42 42 42 41 41 40 40 39
29 30 29 29 30 30 30 30 30 30 30 30 30 31 31 32 32 33 34 35 36 36 36 36 36 36 35 33 31 29 29 29 29 28 26 25 25 24 23 23 23 21 19 19 19 18 17 17 18 20 21 18 15 14 16 19 23 26 29 30 31 31 31 31 32 33 35 37 38 39 39 40 40 40 40 40 40 39 39 39 39 39 38 37 35
28 28 28 28 28 28 29 29 29 28 28 28 28 29 29 29 30 31 31 32 33 33 33 34 34 33 31 30 28 26 25 25 25 25 24 23 22 21 20 21 21 18 15 16 19 18 13 11 11 11 11 10 10 12 15 18 22 26 29 30 30 30 30 30 30 32 34 35 36 37 38 38 38 39 39 38 38 37 37 36 37 36 34 32 32
26 26 26 26 26 26 26 27 28 27 27 27 28 27 27 28 28 28 29 30 31 31 31 32 32 31 30 29 28 26 25 24 24 24 24 23 21 18 17 18 18 17 15 15 16 14 9 6 6 6 6 7 8 11 14 17 21 24 26 27 27 27 28 28 29 30 32 33 34 35 36 36 37 37 37 36 36 35 35 34 34 33 32 31 31
24 24 24 24 24 24 24 25 26 26 26 26 26 26 26 26 26 27 28 29 29 30 30 31 31 30 30 29 28 27 26 25 24 24 24 23 21 19 18 16 15 15 14 14 13 11 8 6 6 6 7 8 9 11 15 18 20 21 22 23 24 24 24 25 26 27 28 30 32 34 34 34 35 35 34 34 34 34 34 33 32 32 32 32 31
22 22 23 23 23 23 23 23 24 25 26 26 26 26 26 26 27 28 29 29 30 30 30 29 29 29 29 29 28 28 27 26 25 23 23 22 21 20 19 18 16 15 13 12 10 9 8 7 8 8 9 10 11 13 15 17 18 19 20 20 21 21 21 21 22 24 25 27 29 31 32 32 32 32 32 32 33 33 33 33 33 33 32 31 29
20 21 22 22 22 22 22 22 23 24 25 26 27 27 28 28 28 29 29 30 31 31 31 30 30 29 29 29 29 29 28 27 26 24 22 21 20 19 18 17 16 15 14 12 11 9 8 8 9 9 9 10 10 12 13 14 15 16 17 17 17 16 16 16 17 19 21 23 25 27 28 29 30 31 31 32 32 32 32 32 31 31 29 28 26
19 19 20 20 21 21 21 21 22 23 24 25 26 27 28 29 29 29 30 30 31 31 31 31 31 31 31 31 31 32 31 30 29 26 24 22 20 18 17 16 15 14 13 12 11 9 8 8 8 7 7 7 7 8 9 10 11 12 12 11 10 10 9 11 13 15 17 20 22 24 25 28 30 32 32 32 32 32 31 29 28 27 26 24 23
18 18 19 19 19 20 20 20 21 22 23 24 25 26 27 28 29 29 30 30 30 31 31 31 32 32 32 33 33 33 34 33 33 32 30 27 25 22 20 19 17 16 14 13 13 13 12 12 10 9 7 6 5 5 4 4 4 4 5 4 4 4 4 6 9 12 15 18 20 23 26 29 31 31 30 30 30 29 28 27 26 24 23 22 21
18 18 18 18 18 19 19 20 20 21 22 23 23 24 24 25 26 27 28 28 29 29 29 30 31 31 32 32 33 33 33 34 34 34 33 32 31 30 27 25 23 21 20 19 19 18 17 16 14 12 10 9 8 6 5 4 3 3 3 4 4 4 4 4 7 10 14 18 22 26 28 29 28 28 28 28 27 26 26 25 24 23 21 20 19
16 17 18 18 18 18 18 18 19 19 20 21 22 22 23 23 24 25 26 26 27 27 28 28 29 29 30 30 31 31 32 32 32 32 32 32 32 31 30 30 29 27 26 26 25 24 23 21 20 19 18 16 15 14 12 11 11 10 10 10 10 10 10 10 10 11 15 19 22 24 24 24 24 25 25 25 24 24 23 22 21 20 19 18 17
15 16 17 17 17 18 18 18 18 19 19 20 21 21 21 22 22 23 23 24 24 25 25 26 26 27 27 28 28 28 29 29 29 30 30 30 30 30 30 30 29 29 28 28 27 26 26 25 24 23 23 22 21 20 19 18 18 18 17 17 17 17 16 15 15 15 16 18 19 19 19 20 22 23 23 22 21 21 20 19 18 17 15 14 14
Wind_Direction
6 4 3 2 1 360 358 358 358 358 357 355 353 349 342 336 330 326 325 325 324 325 326 326 327 326 327 327 327 327 325 324 322 319 314 308 302 294 288 283 278 277 276 273 270 269 268 266 263 261 259 256 254 252 250 249 246 245 243 242 241 240 239 240 243 247 250 252 253 252 250 249 249 249 249 247 246 247 246 243 241 240 237 232 230
359 357 356 356 356 355 353 352 352 352 353 353 353 352 350 347 343 337 332 328 326 325 323 322 321 321 321 321 321 322 322 322 320 317 313 310 306 300 294 289 284 281 278 275 272 271 270 269 268 267 264 261 259 255 253 252 250 248 246 244 242 240 239 240 243 246 247 249 250 250 247 244 245 246 247 247 246 246 246 244 242 240 238 233 230
352 351 350 351 351 350 348 347 345 345 344 344 345 346 345 344 343 340 339 335 333 331 328 327 324 322 320 319 317 316 316 317 318 316 314 309 305 300 296 292 288 285 281 278 275 273 271 270 269 269 267 265 263 260 257 255 253 252 250 248 246 244 242 242 243 245 246 247 248 248 247 244 243 244 245 247 246 245 245 244 243 241 238 234 230
339 338 338 339 341 341 340 339 339 338 337 337 337 337 337 336 335 334 334 333 332 331 329 328 327 324 323 321 319 317 315 312 311 311 312 310 307 302 297 292 289 287 285 283 279 275 272 271 270 269 268 266 265 263 261 258 256 254 252 251 249 248 246 244 244 245 245 246 246 247 248 248 246 244 242 242 242 242 242 242 241 240 238 235 232
327 325 325 325 327 327 328 328 328 328 328 327 327 328 329 329 328 327 327 327 327 328 327 325 323 322 322 322 321 320 319 315 311 308 307 307 306 303 299 294 290 288 287 286 283 279 275 273 271 270 268 265 264 263 262 260 258 256 254 253 251 249 248 246 245 244 244 244 245 244 245 246 245 243 240 239 239 239 238 238 238 237 235 234 232
321 320 320 320 320 319 318 318 318 319 320 320 319 319 319 320 321 321 321 320 320 321 321 321 320 318 316 316 317 317 317 317 314 311 308 304 302 301 300 297 295 291 288 286 283 281 278 276 273 271 268 266 265 264 262 260 259 257 256 255 253 251 249 247 246 243 242 243 244 243 242 242 242 241 240 238 238 239 237 235 235 234 233 233 231
316 316 316 316 316 316 315 314 314 314 315 315 314 314 314 314 314 315 316 315 315 315 314 314 314 313 312 311 310 310 310 310 311 311 309 306 303 300 299 298 297 295 292 289 285 282 279 277 275 272 269 267 266 266 264 262 260 258 256 255 253 251 249 248 246 243 241 241 241 241 241 241 241 242 241 239 237 237 236 234 233 232 231 231 232
314 315 316 317 317 316 315 314 314 313 311 311 310 310 309 309 309 310 310 310 310 310 310 309 308 308 307 307 306 305 304 303 305 307 307 307 305 303 301 298 297 295 294 293 290 286 283 280 277 274 271 269 268 266 264 263 261 259 257 254 252 250 249 248 246 244 242 239 239 240 240 239 238 239 238 235 232 232 232 232 233 234 234 234 234
316 318 318 319 319 318 317 317 316 314 312 310 309 308 307 307 307 307 307 307 306 306 305 305 305 304 303 303 302 301 301 300 301 302 303 304 304 303 302 300 298 297 295 293 292 290 289 286 283 279 276 273 271 268 265 263 261 260 259 255 251 249 248 246 245 244 241 238 237 237 237 237 236 235 234 233 234 234 234 233 233 233 234 235 236
315 317 319 320 321 319 318 317 316 315 314 312 311 309 307 306 305 304 304 304 304 304 303 302 301 301 301 300 299 298 298 297 297 297 298 300 301 301 300 299 298 297 296 294 293 291 291 290 288 286 283 278 274 271 268 264 261 260 259 256 252 250 247 245 243 241 240 238 236 235 235 235 235 235 236 237 238 236 234 233 232 231 230 231 232
311 315 318 320 320 319 319 318 318 317 316 315 314 312 310 308 305 303 302 301 301 301 300 299 298 299 299 298 298 297 296 295 295 295 295 295 297 297 296 296 295 294 294 293 293 292 292 291 290 289 287 284 280 277 272 268 265 262 259 256 253 251 248 245 243 240 238 237 237 235 235 236 236 236 236 237 237 235 234 234 233 231 230 229 230
307 311 315 317 318 318 318 318 317 316 316 315 314 313 311 309 307 305 303 301 299 298 296 296 295 296 296 296 296 295 295 294 293 294 293 293 293 293 292 292 291 291 291 290 290 291 291 291 290 289 288 286 286 284 281 275 271 268 264 258 254 252 249 246 244 241 238 237 236 235 236 237 237 235 235 235 235 234 234 233 232 232 233 233 233
305 310 314 316 317 317 317 316 315 314 314 312 311 310 309 307 306 305 303 301 299 297 295 293 293 293 293 293 293 293 293 292 291 292 291 291 291 291 290 289 288 287 287 287 287 288 288 289 289 288 288 287 287 286 285 284 280 276 271 265 259 255 251 247 246 244 241 239 238 237 237 238 237 237 237 236 235 234 232 232 232 232 233 235 237
308 313 316 317 316 316 315 314 312 311 310 309 308 306 305 304 302 301 300 299 297 296 294 292 291 290 289 289 290 290 290 289 290 290 290 289 289 289 289 288 286 285 284 283 284 285 285 286 286 287 287 287 286 286 286 286 286 283 278 272 267 261 255 249 246 244 242 241 240 240 240 239 238 240 240 239 237 237 236 235 235 234 236 239 242
313 316 316 316 315 314 312 311 308 307 307 306 304 303 301 299 298 297 296 295 294 294 293 292 291 290 288 286 285 285 285 286 287 288 288 288 287 286 287 287 286 285 283 282 281 282 283 283 284 284 284 285 285 286 286 286 286 283 280 277 274 269 262 255 249 245 243 241 241 243 243 241 240 241 242 242 242 242 242 243 244 243 241 241 239
316 316 315 314 313 311 309 307 305 304 304 303 302 300 298 296 295 295 293 292 292 291 291 292 292 291 290 288 285 283 282 281 282 283 284 285 285 284 283 283 283 283 283 282 281 280 280 281 281 282 282 283 284 284 285 284 282 280 279 278 276 273 268 263 257 251 247 244 243 244 244 243 241 241 242 243 244 243 241 240 240 239 236 234 232
315 314 312 311 310 309 307 305 305 304 304 303 300 298 296 294 294 293 292 290 290 289 289 289 289 289 289 288 287 285 283 280 278 278 279 280 281 281 280 279 279 279 280 281 281 280 279 278 279 280 280 281 281 283 283 281 277 277 277 276 275 273 272 269 263 257 251 247 245 246 245 244 242 241 242 243 244 243 238 234 234 233 231 229 229
312 312 311 310 310 309 308 307 307 306 304 301 298 296 295 294 293 292 291 290 289 288 288 287 286 286 285 285 285 284 283 282 279 278 277 277 279 280 279 277 276 275 275 277 278 278 277 277 277 277 279 279 279 280 281 279 275 274 274 274 273 272 273 272 266 260 255 249 245 244 244 244 242 241 241 241 243 242 239 237 235 233 230 229 230
312 312 312 312 311 310 310 309 307 304 302 300 298 296 295 294 294 293 292 290 290 289 288 287 286 284 283 282 282 282 282 282 280 279 278 277 277 278 278 276 275 273 273 273 274 275 275 275 275 275 276 277 278 278 278 277 274 273 273 271 268 270 275 272 264 261 259 254 248 244 241 240 240 239 239 239 240 241 241 240 238 235 233 231 229
313 313 313 313 312 311 310 308 306 305 303 301 300 299 298 298 298 297 296 294 292 291 290 288 286 285 284 283 282 281 281 281 281 280 280 278 277 277 277 276 275 274 273 272 271 271 271 272 273 273 273 274 276 276 276 275 274 273 272 267 265 272 278 272 264 262 261 257 254 250 244 240 238 237 237 236 236 238 239 239 237 237 237 233 230
315 315 314 314 313 311 310 310 309 308 306 305 305 304 303 303 303 302 300 298 296 293 292 290 288 287 286 285 283 282 281 281 281 281 281 280 279 279 278 276 274 273 272 270 269 269 268 268 269 270 271 272 273 274 275 274 273 272 270 268 270 276 277 268 263 264 261 257 255 253 249 244 240 238 237 235 234 235 236 235 235 237 237 234 232
317 316 315 314 313 313 313 313 313 312 311 311 310 308 308 309 308 307 306 304 302 299 297 295 293 290 289 287 285 284 283 283 282 283 283 282 281 281 279 276 275 273 271 270 268 266 266 266 266 267 269 269 271 272 273 274 273 270 269 271 273 275 270 264 262 260 258 256 254 250 247 245 241 238 237 235 233 233 234 233 233 235 235 234 235
317 316 315 315 315 316 316 316 315 315 315 315 314 312 312 313 312 311 310 308 306 304 302 300 297 295 293 292 289 288 287 286 285 285 285 284 283 282 279 277 275 273 270 268 267 266 265 265 264 265 266 267 268 269 271 271 270 268 267 269 271 270 265 259 256 255 254 253 250 247 244 242 239 238 236 234 232 232 232 231 231 232 232 232 233
316 316 317 317 318 318 318 318 318 318 318 317 316 315 316 316 314 313 311 309 306 304 303 302 300 297 296 295 295 293 292 291 290 288 287 287 287 285 282 279 276 273 269 266 265 265 264 264 263 263 263 264 266 267 268 268 268 266 266 267 266 262 257 253 251 249 248 247 245 244 243 240 237 237 236 234 231 230 230 229 228 228 229 230 230
318 319 319 320 321 321 321 320 319 318 318 319 318 317 317 316 313 312 310 307 304 303 302 301 299 297 296 296 296 296 296 295 294 293 292 292 291 289 287 285 281 276 271 266 263 263 263 263 263 263 263 263 264 265 265 264 264 263 263 263 260 253 249 248 247 244 243 243 242 242 241 239 237 237 235 233 230 229 228 227 225 224 225 226 226
320 321 322 323 324 324 321 320 321 322 323 323 321 319 317 314 311 309 307 305 303 301 300 299 298 296 295 295 295 296 296 295 294 295 295 295 294 294 292 289 285 281 277 271 265 261 260 261 261 262 263 263 262 261 260 260 259 259 258 256 252 246 244 244 243 241 240 241 241 241 240 239 237 235 234 231 229 228 227 225 223 221 222 222 222
322 324 326 326 325 324 323 324 326 327 327 325 322 319 316 313 309 306 304 303 301 300 299 298 297 296 295 296 296 296 296 296 296 296 298 298 299 300 298 293 290 288 285 280 273 265 260 259 260 260 260 260 260 259 257 255 254 253 252 250 246 242 241 242 241 240 240 241 241 241 240 237 235 233 232 229 228 228 228 226 224 221 219 219 219
325 327 327 325 326 328 329 330 329 327 325 323 320 318 316 313 309 306 305 303 302 301 300 298 296 296 296 296 297 296 295 295 295 297 298 298 298 299 298 295 293 290 287 285 283 276 266 260 259 258 257 256 256 255 252 249 247 246 247 247 245 242 241 241 240 240 240 241 240 240 237 234 232 232 230 228 227 227 226 225 224 222 219 217 216
328 328 327 328 332 334 333 331 329 326 324 322 320 318 317 315 310 306 305 305 301 298 298 297 296 296 296 295 296 295 294 294 296 298 298 295 292 290 290 291 291 289 285 285 288 287 278 267 261 258 256 254 252 249 246 244 242 242 243 244 244 242 241 239 237 237 238 237 236 235 233 231 229 229 228 225 224 224 223 222 221 219 217 215 214
329 329 332 335 337 336 333 330 329 326 324 322 320 318 319 317 312 306 305 305 300 294 293 294 295 296 295 294 294 294 293 294 297 297 295 292 289 288 286 285 284 283 282 283 286 288 286 277 266 257 253 252 250 246 244 240 237 237 238 240 240 240 239 238 236 236 236 235 233 231 230 228 226 225 224 221 220 219 220 219 218 217 216 214 212
329 333 338 339 338 337 333 330 328 326 325 323 320 318 317 318 317 314 311 308 303 298 297 296 296 296 295 294 295 295 295 296 297 296 295 294 292 290 288 284 281 279 277 279 281 282 283 283 274 259 250 250 249 246 243 240 236 235 236 237 237 237 236 236 236 236 235 234 231 228 226 226 225 223 222 219 217 216 216 216 215 215 215 215 214
333 338 340 340 339 338 334 330 328 326 324 323 321 319 317 316 318 319 319 316 312 309 307 303 301 300 298 297 298 298 298 298 299 298 297 295 294 291 289 285 282 278 273 272 275 276 278 281 282 270 255 248 249 250 247 243 239 237 236 236 236 237 236 236 237 236 233 232 229 224 222 223 223 221 219 218 217 215 214 214 214 214 214 214 215
339 341 342 342 340 337 333 330 328 326 325 324 322 320 318 316 315 318 320 322 321 320 318 316 313 310 308 307 304 302 302 303 303 301 299 297 295 293 291 288 286 282 275 270 270 272 274 276 280 279 266 251 247 250 250 246 242 241 239 238 239 240 238 238 237 235 232 231 229 224 220 219 219 218 217 217 218 217 215 214 213 213 213 212 213
345 344 344 343 339 335 333 331 328 326 326 324 322 320 318 317 316 316 318 320 322 324 327 329 327 322 318 315 313 312 312 311 307 303 301 299 296 295 295 293 289 284 278 272 270 271 272 272 274 277 274 261 248 245 248 249 246 244 244 244 243 241 238 237 235 234 232 230 227 224 220 218 218 218 216 216 216 215 215 214 213 211 211 210 210
349 347 347 344 338 334 333 331 329 328 327 325 324 322 320 319 318 317 317 318 319 320 324 329 334 332 327 322 320 320 320 316 310 306 304 302 303 304 304 300 295 287 278 272 270 269 269 269 269 270 272 269 256 246 246 252 252 249 247 245 242 238 236 235 234 233 231 229 226 223 221 220 220 220 219 216 214 213 212 212 211 211 210 209 209
351 350 348 344 338 335 334 333 332 330 328 327 325 323 321 320 319 318 318 317 317 317 319 323 330 335 336 333 331 331 329 325 320 317 314 313 316 317 313 308 304 295 281 270 267 266 265 266 265 262 264 267 259 248 248 257 259 255 252 247 243 239 236 234 233 231 229 228 227 225 223 221 220 219 217 214 213 213 213 212 211 210 210 210 210
352 351 349 343 338 336 335 335 334 333 331 329 327 325 324 323 321 319 318 318 318 318 319 322 326 331 337 341 341 339 336 334 331 328 326 328 329 326 320 316 318 314 298 279 267 263 260 261 261 256 257 258 253 248 254 265 263 257 253 248 244 241 238 236 235 233 230 228 227 224 222 220 218 216 213 210 209 210 210 210 210 209 209 209 210
353 352 349 343 338 336 336 336 336 335 334 333 331 329 327 325 324 323 321 320 320 320 321 323 325 327 331 337 342 343 341 339 337 336 335 335 334 332 329 327 327 329 326 313 289 269 260 259 258 253 251 252 251 253 259 263 259 255 250 246 243 241 238 236 234 232 230 228 224 221 219 216 215 214 212 211 210 210 209 209 208 206 205 206 207
354 354 350 344 339 337 337 337 337 337 337 337 336 334 331 329 328 326 324 323 323 323 323 324 325 326 329 334 340 343 340 334 332 332 333 335 336 336 336 334 331 331 334 334 326 301 273 261 253 246 246 248 250 253 257 257 255 252 247 244 241 237 233 231 229 227 225 224 222 220 217 215 214 213 212 211 211 211 209 208 207 206 206 206 206
355 354 351 345 340 340 340 340 340 340 340 340 339 337 335 333 331 329 328 327 326 326 326 326 326 328 332 334 336 337 332 326 324 326 327 329 332 333 333 331 329 330 332 331 328 317 292 270 254 243 242 242 243 250 258 259 255 249 245 243 240 234 231 229 227 225 224 223 221 219 217 215 214 212 210 210 211 211 210 208 206 206 207 207 206
355 354 351 346 342 343 343 343 343 343 343 342 341 341 340 338 336 334 332 331 331 330 331 331 331 333 336 336 334 332 330 328 328 326 324 323 323 323 321 319 320 327 333 332 329 322 302 276 253 242 240 241 247 259 265 260 253 247 243 238 234 230 228 227 225 223 222 221 219 218 217 216 214 212 210 209 209 209 208 207 204 203 203 203 203
355 353 350 346 345 346 346 345 344 345 345 346 346 346 344 343 342 339 338 338 338 337 336 337 338 340 342 343 342 342 343 343 340 335 330 327 324 323 322 322 324 331 336 335 336 333 314 276 253 249 252 260 273 277 273 264 255 246 239 233 229 226 225 224 222 221 220 219 218 217 216 214 213 212 210 208 207 206 205 203 202 201 199 197 197
355 353 349 347 348 349 349 347 346 348 350 351 352 351 350 348 347 347 346 346 345 344 344 344 344 346 349 352 353 353 354 354 352 348 344 338 334 333 335 335 336 338 337 333 333 332 323 304 298 298 294 292 289 282 273 266 257 247 239 232 228 226 226 224 222 220 219 217 216 214 212 211 209 208 207 206 205 203 201 199 197 195 192 191 191
355 353 351 350 352 354 353 351 351 353 356 358 358 357 357 356 356 357 357 355 354 353 352 350 350 352 355 357 358 359 360 360 359 358 356 352 347 344 343 342 343 344 340 334 329 328 329 332 328 317 305 295 284 271 263 256 250 244 240 235 231 229 229 228 226 224 221 219 215 211 209 207 206 205 204 204 201 198 196 193 191 189 187 186 187
355 354 353 354 355 357 357 357 358 360 2 4 6 7 7 7 8 8 7 6 6 5 2 1 1 1 1 3 4 4 4 4 3 3 3 3 0 356 351 349 349 347 344 339 333 330 333 336 330 317 305 293 280 267 256 248 242 239 237 236 235 235 235 233 231 227 223 219 215 210 206 204 203 201 199 197 194 192 190 187 186 185 184 184 184
355 355 355 356 357 359 359 359 2 6 8 10 12 14 15 16 17 19 18 17 17 16 15 15 15 14 13 14 15 14 12 11 10 9 8 8 8 6 3 360 356 352 348 344 341 336 335 332 327 318 309 299 286 272 258 249 243 240 236 235 237 240 241 239 236 229 224 220 215 209 204 200 197 195 192 188 187 186 184 183 183 182 181 181 181
354 355 356 356 358 0 1 1 4 8 11 13 15 17 18 19 21 22 24 25 26 26 26 27 28 28 27 28 28 27 25 23 21 19 18 16 15 14 14 13 13 10 7 5 5 6 9 7 359 347 333 320 306 288 269 256 249 246 242 239 241 244 247 246 238 228 221 217 212 207 201 193 187 185 185 183 182 182 181 179 179 179 178 178 178
354 355 355 356 358 359 0 2 4 7 10 12 14 16 18 19 20 21 23 25 28 30 31 33 34 34 34 34 35 35 35 34 33 32 30 29 28 28 28 29 31 32 34 37 41 43 42 39 33 26 16 7 359 343 316 289 268 255 244 233 227 230 240 239 228 216 209 205 201 197 192 186 182 181 181 181 180 179 177 176 175 175 174 176 177
353 354 355 357 359 360 0 1 3 5 8 10 12 14 17 18 18 19 21 23 25 28 30 32 34 35 35 35 36 37 38 39 39 39 38 38 38 38 37 39 42 44 47 51 53 54 54 54 54 53 53 54 55 59 65 76 91 109 127 140 151 156 162 179 193 195 193 191 188 185 183 181 179 178 177 176 176 174 173 173 173 173 174 176 178
352 355 357 358 360 2 3 3 3 4 6 7 9 12 15 17 18 20 20 21 24 25 27 29 32 34 35 35 35 36 38 39 40 41 42 44 45 45 45 46 48 50 54 56 58 59 61 64 66 68 70 72 74 77 80 84 90 98 105 110 115 121 127 136 150 164 173 176 178 178 178 177 175 173 171 171 171 170 170 171 173 174 176 179 180
350 354 357 358 0 2 4 5 5 6 7 8 9 11 14 16 19 21 22 23 25 26 27 29 31 33 35 37 37 38 39 40 41 42 43 45 46 48 49 51 52 54 56 59 61 62 64 66 68 70 73 74 76 78 80 83 86 91 95 99 102 107 112 120 130 143 155 162 166 168 169 169 168 166 166 166 167 168 169 171 174 176 179 181 183
Height
1483 1483 1482 1482 1482 1482 1483 1482 1481 1480 1478 1476 1474 1473 1473 1472 1471 1470 1469 1468 1466 1465 1463 1461 1460 1458 1457 1456 1454 1452 1450 1449 1447 1445 1444 1443 1443 1443 1444 1444 1444 1443 1443 1443 1443 1443 1443 1443 1444 1446 1448 1449 1450 1452 1454 1457 1459 1460 1461 1462 1462 1462 1463 1462 1460 1460 1462 1463 1464 1466 1468 1470 1471 1473 1475 1477 1478 1479 1480 1482 1483 1484 1486 1488 1490
1483 1483 1483 1482 1482 1481 1481 1480 1479 1478 1476 1475 1473 1472 1471 1470 1469 1469 1468 1468 1466 1465 1463 1461 1459 1457 1455 1454 1451 1449 1447 1446 1444 1443 1442 1441 1441 1440 1440 1440 1440 1439 1439 1438 1438 1438 1438 1438 1438 1441 1443 1443 1443 1445 1447 1450 1452 1454 1455 1457 1457 1458 1459 1459 1458 1458 1458 1458 1459 1461 1462 1464 1466 1468 1471 1473 1475 1475 1476 1477 1479 1480 1482 1484 1486
1484 1483 1482 1482 1481 1480 1479 1478 1477 1476 1474 1473 1472 1471 1470 1469 1468 1468 1467 1466 1465 1464 1461 1459 1457 1455 1453 1452 1450 1448 1446 1444 1443 1441 1440 1439 1438 1437 1437 1436 1436 1435 1434 1433 1433 1434 1433 1433 1433 1436 1438 1437 1437 1438 1440 1443 1445 1447 1449 1451 1451 1452 1454 1455 1455 1454 1454 1454 1455 1455 1456 1458 1460 1463 1466 1469 1471 1471 1472 1473 1474 1476 1478 1480 1482
1485 1484 1483 1482 1480 1479 1478 1477 1476 1474 1472 1471 1469 1468 1468 1467 1466 1466 1465 1463 1462 1460 1458 1455 1453 1452 1451 1450 1448 1447 1445 1443 1441 1440 1438 1437 1435 1434 1433 1433 1432 1431 1430 1429 1428 1429 1428 1428 1429 1431 1433 1432 1431 1433 1435 1437 1438 1440 1441 1443 1445 1446 1447 1449 1450 1450 1450 1449 1449 1450 1452 1453 1455 1458 1461 1463 1465 1467 1467 1468 1470 1472 1474 1476 1477
1485 1483 1482 1481 1480 1479 1478 1476 1475 1473 1471 1469 1467 1466 1465 1464 1463 1461 1460 1458 1457 1455 1454 1452 1451 1449 1448 1447 1446 1444 1443 1441 1440 1438 1437 1435 1434 1432 1431 1430 1428 1427 1425 1424 1424 1423 1423 1423 1424 1426 1427 1426 1426 1427 1429 1431 1432 1434 1434 1436 1438 1440 1442 1443 1444 1445 1445 1444 1444 1445 1447 1448 1449 1452 1454 1456 1459 1462 1463 1463 1465 1467 1469 1471 1472
1483 1482 1481 1479 1479 1478 1476 1475 1473 1471 1469 1467 1465 1464 1462 1461 1459 1457 1456 1454 1453 1452 1450 1449 1448 1447 1446 1444 1443 1441 1440 1439 1438 1437 1436 1434 1433 1431 1429 1428 1426 1423 1421 1420 1419 1419 1418 1418 1419 1421 1421 1420 1420 1422 1424 1425 1426 1427 1428 1429 1432 1435 1436 1436 1437 1439 1439 1438 1438 1439 1441 1442 1443 1444 1446 1449 1452 1455 1456 1458 1459 1461 1463 1465 1466
1482 1481 1479 1478 1477 1475 1474 1472 1470 1469 1467 1465 1463 1461 1460 1458 1456 1454 1453 1451 1449 1449 1448 1447 1446 1444 1443 1442 1441 1439 1438 1437 1436 1435 1434 1432 1431 1429 1427 1425 1422 1420 1418 1417 1416 1415 1414 1414 1414 1414 1415 1415 1415 1417 1419 1420 1420 1421 1421 1423 1426 1428 1429 1430 1432 1433 1433 1433 1432 1432 1434 1436 1437 1438 1440 1443 1446 1448 1450 1451 1452 1454 1456 1458 1460
1480 1479 1478 1476 1475 1473 1472 1470 1468 1466 1465 1462 1461 1459 1457 1455 1453 1452 1450 1448 1446 1445 1443 1442 1441 1440 1439 1438 1437 1436 1435 1434 1433 1431 1429 1428 1426 1424 1422 1420 1418 1416 1415 1413 1412 1411 1410 1409 1409 1408 1409 1409 1410 1412 1413 1415 1416 1415 1416 1418 1420 1421 1422 1424 1425 1427 1427 1427 1426 1426 1427 1429 1431 1432 1434 1435 1436 1437 1440 1444 1446 1448 1450 1453 1455
1478 1477 1476 1475 1474 1472 1470 1469 1467 1465 1463 1460 1459 1457 1454 1452 1450 1448 1447 1445 1443 1442 1440 1438 1436 1435 1434 1433 1432 1432 1430 1429 1428 1427 1425 1423 1421 1418 1416 1415 1413 1411 1410 1408 1408 1407 1406 1405 1405 1404 1404 1403 1404 1406 1407 1409 1410 1410 1410 1413 1414 1414 1414 1416 1418 1419 1420 1420 1420 1419 1420 1420 1422 1423 1423 1423 1424 1427 1433 1439 1441 1443 1446 1448 1450
1475 1474 1473 1471 1470 1468 1467 1465 1463 1462 1460 1458 1456 1454 1452 1450 1448 1446 1443 1441 1440 1438 1436 1434 1432 1430 1428 1427 1427 1426 1425 1424 1423 1422 1420 1418 1416 1414 1411 1409 1408 1406 1404 1403 1402 1402 1401 1401 1400 1400 1399 1399 1399 1399 1401 1402 1403 1404 1405 1408 1409 1408 1408 1408 1409 1411 1412 1413 1414 1413 1412 1411 1411 1412 1413 1414 1418 1423 1428 1432 1435 1438 1441 1442 1442
1471 1470 1468 1467 1465 1463 1461 1459 1458 1456 1454 1453 1451 1449 1448 1446 1444 1442 1440 1438 1436 1433 1431 1429 1427 1425 1423 1421 1420 1419 1418 1418 1417 1416 1415 1414 1412 1409 1407 1405 1403 1401 1400 1398 1397 1396 1396 1396 1395 1395 1395 1394 1394 1394 1395 1395 1396 1397 1399 1402 1403 1402 1401 1401 1401 1402 1404 1405 1406 1407 1405 1402 1403 1404 1407 1410 1413 1416 1419 1424 1429 1432 1433 1432 1432
1468 1466 1464 1462 1460 1458 1456 1454 1452 1450 1448 1446 1445 1443 1441 1439 1438 1436 1434 1433 1431 1428 1427 1424 1422 1420 1418 1415 1414 1412 1412 1411 1411 1410 1408 1407 1407 1405 1402 1400 1398 1396 1395 1393 1392 1391 1390 1390 1390 1390 1389 1389 1389 1389 1389 1389 1389 1390 1392 1394 1395 1394 1394 1394 1393 1395 1396 1397 1398 1399 1398 1396 1396 1397 1399 1403 1406 1410 1414 1418 1421 1423 1424 1425 1425
1465 1463 1460 1458 1456 1453 1451 1449 1446 1444 1442 1440 1438 1436 1434 1432 1431 1429 1427 1425 1424 1422 1421 1419 1417 1415 1413 1410 1408 1405 1404 1404 1404 1404 1402 1401 1400 1399 1397 1395 1393 1391 1390 1388 1387 1386 1385 1384 1384 1383 1384 1384 1384 1383 1383 1383 1383 1383 1384 1385 1386 1386 1386 1386 1387 1388 1390 1391 1391 1390 1390 1391 1392 1391 1393 1396 1401 1405 1408 1410 1413 1415 1417 1417 1419
1461 1458 1456 1453 1451 1449 1446 1443 1441 1438 1436 1434 1432 1429 1427 1425 1423 1422 1420 1418 1416 1414 1413 1412 1410 1409 1407 1405 1402 1399 1398 1397 1396 1396 1395 1394 1394 1392 1390 1388 1386 1385 1384 1382 1381 1380 1379 1378 1377 1377 1377 1377 1378 1378 1377 1377 1376 1376 1376 1376 1377 1377 1378 1379 1380 1380 1382 1383 1383 1382 1383 1386 1388 1388 1390 1392 1394 1396 1400 1403 1407 1409 1411 1413 1416
1456 1454 1451 1448 1446 1444 1441 1438 1435 1433 1430 1428 1425 1423 1421 1418 1416 1415 1413 1410 1408 1405 1404 1402 1401 1400 1399 1398 1395 1392 1391 1391 1389 1387 1386 1386 1386 1385 1383 1380 1378 1377 1376 1376 1375 1374 1373 1372 1371 1370 1370 1370 1371 1372 1372 1371 1371 1370 1369 1368 1368 1369 1370 1370 1371 1372 1374 1375 1375 1375 1377 1381 1384 1386 1387 1387 1388 1391 1395 1400 1403 1406 1407 1409 1410
1451 1448 1446 1444 1441 1439 1436 1433 1430 1427 1424 1422 1419 1417 1415 1412 1410 1408 1405 1403 1400 1398 1395 1393 1391 1390 1389 1388 1386 1383 1382 1383 1382 1380 1378 1377 1377 1376 1375 1373 1371 1368 1367 1367 1367 1367 1366 1366 1365 1364 1363 1363 1364 1365 1366 1366 1365 1364 1362 1361 1361 1361 1361 1361 1363 1365 1366 1368 1369 1369 1372 1376 1380 1382 1382 1382 1384 1388 1392 1396 1398 1399 1400 1400 1400
1446 1443 1440 1438 1436 1433 1430 1427 1424 1421 1418 1415 1413 1410 1408 1405 1403 1401 1398 1395 1392 1389 1387 1385 1383 1380 1378 1377 1376 1373 1372 1373 1374 1372 1371 1370 1368 1366 1365 1364 1362 1360 1358 1358 1358 1358 1359 1359 1358 1357 1356 1356 1357 1358 1360 1360 1359 1358 1356 1355 1355 1354 1352 1353 1355 1357 1359 1361 1362 1364 1367 1370 1374 1376 1378 1378 1379 1382 1385 1386 1387 1388 1390 1391 1391
1441 1438 1435 1432 1430 1427 1424 1422 1418 1415 1412 1409 1406 1403 1400 1398 1395 1393 1391 1387 1383 1380 1378 1375 1373 1371 1369 1367 1365 1363 1360 1361 1363 1362 1361 1361 1359 1357 1355 1354 1352 1351 1350 1349 1349 1349 1349 1350 1351 1350 1349 1349 1350 1351 1352 1353 1352 1351 1350 1349 1349 1346 1345 1346 1348 1350 1352 1354 1355 1357 1360 1363 1366 1369 1371 1372 1373 1375 1375 1375 1377 1381 1382 1383 1384
1435 1432 1429 1426 1423 1421 1418 1415 1412 1409 1405 1402 1399 1396 1393 1390 1387 1385 1382 1379 1375 1371 1369 1366 1363 1361 1359 1357 1356 1354 1350 1348 1350 1351 1350 1351 1350 1348 1346 1345 1342 1341 1340 1339 1339 1339 1339 1340 1342 1342 1342 1342 1343 1344 1345 1345 1345 1344 1344 1344 1342 1339 1339 1340 1342 1343 1344 1346 1347 1349 1351 1354 1357 1360 1363 1365 1366 1366 1366 1368 1372 1373 1374 1376 1378
1429 1426 1423 1420 1417 1415 1412 1409 1406 1403 1399 1395 1392 1389 1386 1382 1379 1376 1373 1370 1367 1363 1360 1358 1354 1351 1350 1348 1346 1344 1341 1338 1338 1339 1339 1339 1339 1338 1337 1335 1332 1331 1330 1330 1329 1329 1330 1330 1331 1333 1334 1335 1335 1336 1337 1338 1338 1337 1337 1336 1334 1332 1334 1336 1336 1336 1337 1338 1340 1342 1344 1346 1349 1351 1354 1357 1358 1358 1359 1362 1364 1365 1367 1371 1372
1423 1420 1417 1414 1411 1408 1405 1402 1399 1396 1392 1388 1384 1381 1378 1375 1371 1368 1365 1362 1358 1355 1352 1350 1346 1341 1339 1338 1336 1334 1332 1330 1328 1328 1328 1328 1327 1328 1327 1325 1323 1323 1321 1320 1320 1320 1320 1320 1321 1323 1325 1326 1327 1328 1328 1329 1330 1330 1329 1328 1327 1328 1329 1330 1330 1331 1332 1332 1333 1335 1336 1338 1341 1342 1345 1347 1349 1350 1351 1354 1355 1357 1360 1364 1365
1418 1414 1411 1408 1405 1402 1399 1396 1392 1388 1384 1381 1376 1372 1370 1368 1364 1361 1358 1354 1351 1347 1344 1342 1338 1333 1329 1329 1327 1324 1323 1323 1321 1319 1318 1318 1317 1317 1317 1315 1315 1315 1313 1311 1310 1310 1309 1310 1311 1313 1316 1318 1319 1320 1320 1321 1322 1322 1321 1321 1321 1323 1324 1324 1324 1325 1326 1327 1327 1328 1329 1330 1332 1333 1335 1338 1340 1343 1344 1346 1349 1351 1354 1357 1360
1413 1409 1406 1402 1399 1396 1392 1389 1385 1381 1378 1374 1370 1365 1363 1361 1358 1355 1352 1348 1344 1340 1337 1335 1331 1326 1321 1319 1318 1317 1316 1316 1314 1312 1311 1311 1310 1309 1308 1307 1308 1308 1306 1303 1301 1300 1300 1300 1301 1303 1306 1308 1310 1312 1313 1313 1313 1314 1314 1314 1315 1316 1318 1319 1319 1319 1320 1321 1322 1321 1321 1322 1324 1325 1327 1329 1332 1336 1339 1341 1344 1347 1349 1352 1355
1408 1404 1401 1397 1394 1390 1386 1382 1379 1375 1372 1368 1364 1360 1357 1355 1352 1350 1347 1344 1339 1335 1331 1329 1326 1320 1316 1312 1310 1310 1309 1308 1308 1307 1306 1304 1302 1301 1300 1300 1300 1300 1298 1295 1293 1292 1291 1291 1292 1294 1297 1299 1301 1303 1304 1305 1305 1306 1306 1307 1308 1310 1312 1312 1312 1312 1313 1314 1315 1314 1314 1314 1316 1318 1320 1323 1327 1330 1333 1337 1340 1343 1345 1347 1350
1403 1400 1396 1393 1389 1384 1380 1377 1374 1371 1368 1364 1360 1356 1353 1350 1347 1345 1342 1339 1335 1331 1327 1324 1321 1316 1312 1307 1304 1303 1304 1303 1301 1301 1301 1298 1296 1294 1292 1292 1291 1291 1289 1287 1285 1284 1283 1283 1284 1286 1288 1290 1292 1294 1295 1296 1297 1298 1299 1300 1302 1304 1305 1305 1306 1306 1306 1306 1307 1308 1308 1309 1310 1312 1315 1319 1322 1324 1326 1330 1334 1337 1340 1342 1344
1398 1395 1392 1387 1383 1379 1375 1371 1369 1366 1363 1360 1356 1352 1350 1346 1343 1341 1338 1335 1331 1327 1323 1320 1316 1312 1307 1303 1300 1298 1298 1298 1297 1296 1295 1292 1289 1286 1284 1282 1282 1282 1280 1278 1277 1276 1276 1277 1277 1278 1279 1281 1283 1285 1285 1286 1288 1290 1291 1293 1295 1297 1298 1299 1299 1299 1299 1299 1300 1301 1303 1305 1307 1309 1312 1314 1316 1318 1320 1322 1326 1330 1334 1337 1339
1394 1390 1387 1382 1379 1375 1370 1366 1362 1359 1356 1354 1351 1348 1346 1343 1340 1337 1334 1330 1327 1323 1319 1316 1312 1308 1303 1299 1296 1293 1292 1292 1291 1290 1288 1285 1282 1280 1278 1275 1275 1274 1273 1271 1270 1270 1270 1271 1271 1271 1272 1274 1275 1276 1277 1278 1280 1281 1283 1285 1287 1288 1290 1291 1292 1292 1292 1293 1294 1296 1299 1301 1303 1304 1305 1307 1310 1312 1315 1317 1320 1324 1328 1332 1335
1390 1386 1383 1379 1374 1370 1365 1360 1357 1354 1351 1349 1347 1344 1341 1339 1336 1333 1330 1327 1323 1318 1315 1311 1308 1304 1299 1295 1291 1287 1285 1285 1285 1284 1282 1279 1276 1274 1273 1271 1269 1268 1266 1265 1265 1265 1265 1265 1265 1265 1265 1266 1267 1268 1269 1270 1271 1273 1275 1277 1278 1280 1283 1285 1286 1286 1286 1287 1289 1291 1294 1296 1297 1298 1299 1301 1304 1307 1310 1312 1315 1319 1323 1327 1329
1386 1383 1379 1374 1368 1363 1360 1357 1354 1350 1347 1344 1342 1340 1337 1335 1331 1327 1325 1324 1321 1317 1312 1308 1304 1301 1296 1293 1289 1284 1279 1279 1280 1279 1276 1274 1272 1270 1269 1267 1265 1263 1261 1260 1260 1259 1258 1258 1258 1257 1258 1258 1259 1260 1261 1262 1263 1265 1267 1269 1271 1273 1276 1278 1279 1279 1280 1282 1283 1285 1287 1290 1291 1293 1295 1296 1299 1302 1305 1308 1311 1314 1318 1322 1324
1382 1379 1373 1368 1363 1360 1357 1354 1350 1347 1343 1339 1336 1333 1332 1331 1329 1325 1321 1319 1318 1316 1312 1307 1303 1300 1295 1291 1288 1284 1278 1275 1275 1274 1272 1270 1268 1266 1265 1263 1261 1259 1256 1256 1255 1253 1252 1251 1250 1250 1250 1251 1252 1253 1254 1255 1256 1257 1259 1261 1264 1266 1268 1270 1272 1273 1275 1276 1277 1279 1281 1284 1286 1288 1290 1292 1294 1298 1301 1304 1307 1310 1313 1317 1320
1378 1373 1368 1364 1361 1358 1354 1351 1347 1344 1340 1336 1332 1328 1324 1323 1323 1321 1318 1315 1313 1311 1308 1304 1300 1298 1293 1287 1284 1281 1277 1273 1271 1269 1267 1264 1262 1260 1259 1257 1256 1254 1253 1252 1250 1247 1246 1245 1244 1244 1245 1245 1246 1247 1249 1250 1250 1251 1253 1256 1258 1260 1262 1264 1266 1269 1270 1271 1272 1273 1275 1277 1280 1283 1285 1288 1290 1293 1297 1300 1303 1306 1309 1313 1316
1375 1369 1365 1362 1358 1355 1352 1348 1344 1341 1337 1333 1330 1325 1321 1316 1314 1313 1313 1312 1308 1305 1302 1298 1295 1292 1289 1284 1279 1275 1272 1269 1266 1264 1262 1260 1257 1255 1253 1251 1250 1249 1249 1247 1245 1242 1241 1240 1240 1240 1240 1241 1242 1244 1245 1246 1247 1248 1249 1251 1253 1254 1256 1259 1261 1263 1265 1266 1267 1268 1270 1272 1275 1278 1281 1284 1286 1289 1293 1296 1299 1302 1306 1310 1313
1372 1366 1363 1360 1356 1354 1351 1346 1342 1338 1334 1330 1327 1324 1320 1315 1310 1306 1304 1304 1303 1300 1296 1293 1289 1286 1283 1280 1276 1271 1267 1264 1262 1259 1257 1255 1252 1250 1248 1246 1245 1244 1243 1241 1238 1236 1237 1236 1236 1236 1236 1236 1237 1240 1242 1243 1244 1245 1246 1248 1249 1250 1252 1254 1257 1259 1261 1262 1263 1264 1266 1268 1272 1275 1277 1280 1282 1285 1288 1291 1295 1299 1302 1306 1309
1369 1365 1362 1358 1355 1352 1348 1344 1340 1336 1332 1329 1325 1322 1318 1315 1310 1305 1299 1296 1294 1292 1289 1287 1284 1281 1278 1274 1271 1268 1264 1261 1258 1255 1253 1250 1248 1246 1244 1242 1240 1239 1238 1236 1233 1232 1233 1233 1232 1232 1233 1233 1233 1235 1237 1240 1241 1242 1243 1244 1245 1246 1248 1250 1252 1255 1256 1258 1260 1260 1262 1265 1268 1270 1273 1275 1278 1281 1284 1287 1290 1294 1297 1301 1304
1367 1364 1361 1358 1354 1350 1346 1342 1338 1334 1330 1327 1324 1320 1317 1313 1309 1305 1300 1295 1290 1286 1283 1280 1278 1276 1273 1270 1267 1264 1261 1257 1254 1251 1249 1246 1244 1242 1240 1238 1235 1233 1231 1230 1229 1228 1228 1228 1228 1228 1229 1231 1231 1231 1233 1236 1238 1239 1240 1240 1241 1242 1243 1245 1248 1250 1252 1254 1255 1257 1259 1261 1264 1266 1268 1270 1273 1276 1279 1282 1286 1289 1293 1297 1300
1364 1361 1358 1356 1353 1349 1345 1341 1337 1333 1329 1325 1322 1318 1315 1311 1308 1304 1300 1296 1291 1286 1281 1277 1274 1271 1269 1266 1264 1261 1257 1253 1250 1247 1245 1243 1241 1239 1237 1234 1230 1227 1225 1224 1224 1224 1224 1224 1224 1225 1226 1228 1228 1228 1230 1233 1234 1235 1236 1237 1237 1238 1239 1241 1243 1245 1248 1250 1252 1254 1256 1258 1260 1261 1263 1265 1268 1271 1275 1278 1282 1285 1289 1293 1296
1361 1359 1356 1354 1351 1347 1343 1339 1335 1331 1327 1324 1320 1317 1313 1309 1306 1302 1298 1294 1290 1286 1280 1276 1272 1268 1265 1263 1261 1257 1253 1250 1247 1244 1242 1240 1238 1236 1233 1230 1227 1224 1221 1219 1218 1219 1219 1219 1220 1221 1223 1225 1226 1226 1227 1229 1231 1231 1232 1232 1233 1234 1235 1237 1239 1242 1244 1246 1248 1250 1252 1254 1255 1257 1259 1262 1266 1269 1272 1275 1279 1282 1286 1290 1293
1359 1357 1354 1352 1349 1345 1341 1337 1333 1330 1326 1322 1319 1315 1311 1308 1304 1300 1297 1293 1289 1284 1280 1275 1271 1267 1263 1260 1257 1255 1251 1246 1243 1240 1238 1236 1234 1232 1230 1227 1225 1222 1219 1217 1215 1215 1214 1215 1217 1219 1220 1222 1223 1223 1225 1226 1226 1227 1228 1229 1230 1231 1232 1234 1236 1238 1240 1242 1244 1246 1248 1250 1252 1254 1257 1260 1263 1266 1269 1273 1276 1279 1283 1287 1290
1358 1355 1353 1351 1348 1344 1340 1336 1332 1328 1324 1321 1317 1314 1310 1306 1302 1298 1295 1291 1287 1283 1279 1274 1270 1266 1263 1259 1256 1253 1249 1245 1242 1239 1236 1233 1231 1229 1227 1225 1223 1220 1217 1215 1213 1212 1212 1212 1213 1215 1217 1217 1219 1220 1221 1222 1223 1223 1224 1225 1226 1227 1229 1231 1232 1235 1237 1239 1241 1243 1246 1248 1250 1253 1256 1258 1261 1264 1267 1270 1274 1277 1280 1284 1287
1355 1353 1352 1350 1347 1343 1339 1335 1331 1327 1323 1320 1316 1312 1308 1305 1301 1297 1293 1289 1286 1282 1278 1274 1269 1265 1262 1259 1256 1253 1250 1246 1242 1240 1236 1233 1230 1228 1226 1224 1222 1220 1217 1215 1212 1211 1210 1209 1210 1211 1212 1214 1216 1217 1218 1219 1219 1220 1221 1222 1223 1224 1225 1227 1229 1231 1234 1236 1238 1241 1243 1246 1248 1251 1254 1257 1259 1262 1265 1269 1272 1275 1278 1282 1285
1354 1351 1350 1348 1345 1341 1337 1334 1330 1327 1323 1319 1315 1311 1307 1303 1300 1296 1293 1289 1285 1281 1276 1273 1269 1264 1261 1259 1256 1254 1250 1246 1242 1239 1236 1233 1231 1228 1226 1224 1222 1219 1217 1215 1213 1211 1209 1208 1209 1210 1211 1213 1214 1215 1215 1216 1216 1217 1217 1218 1219 1221 1223 1224 1227 1229 1231 1234 1236 1239 1241 1244 1247 1249 1252 1255 1258 1261 1264 1268 1271 1273 1276 1280 1284
1352 1350 1349 1347 1344 1340 1336 1333 1329 1326 1322 1319 1314 1311 1307 1303 1299 1295 1291 1288 1284 1280 1275 1271 1267 1263 1260 1257 1254 1251 1247 1244 1241 1238 1235 1232 1230 1227 1225 1224 1221 1219 1217 1216 1213 1212 1210 1210 1210 1211 1212 1213 1213 1213 1213 1214 1214 1215 1215 1216 1217 1219 1221 1223 1225 1227 1230 1232 1235 1237 1240 1243 1245 1248 1251 1254 1257 1260 1263 1266 1269 1271 1275 1279 1283
1351 1349 1348 1345 1342 1339 1335 1332 1329 1325 1321 1317 1314 1310 1306 1302 1299 1295 1290 1287 1283 1279 1275 1270 1266 1262 1259 1255 1252 1249 1246 1243 1240 1238 1235 1232 1229 1227 1224 1223 1221 1219 1218 1217 1215 1214 1213 1212 1212 1212 1212 1212 1212 1213 1213 1213 1213 1214 1215 1216 1217 1219 1220 1221 1224 1226 1228 1231 1233 1236 1239 1242 1244 1247 1250 1253 1256 1259 1262 1265 1268 1271 1274 1278 1282
1350 1349 1347 1344 1341 1338 1335 1331 1328 1325 1321 1317 1314 1310 1306 1302 1298 1294 1290 1286 1282 1278 1275 1271 1267 1262 1258 1255 1251 1248 1245 1242 1239 1237 1234 1232 1229 1227 1225 1223 1221 1219 1218 1217 1216 1215 1214 1214 1213 1213 1212 1212 1212 1212 1213 1213 1213 1214 1215 1216 1217 1219 1220 1221 1223 1225 1227 1229 1232 1235 1238 1241 1243 1246 1249 1252 1255 1258 1261 1265 1268 1271 1274 1277 1280
1349 1348 1345 1342 1339 1336 1334 1331 1328 1324 1321 1317 1314 1310 1306 1302 1298 1294 1290 1286 1282 1279 1275 1271 1267 1263 1259 1256 1252 1249 1246 1243 1240 1237 1234 1232 1230 1228 1226 1223 1222 1220 1219 1218 1217 1216 1215 1214 1214 1213 1213 1213 1213 1213 1213 1213 1214 1215 1216 1217 1218 1219 1220 1222 1223 1225 1227 1229 1231 1234 1237 1240 1243 1246 1249 1252 1255 1258 1261 1264 1267 1270 1273 1277 1280
1349 1346 1344 1341 1338 1335 1333 1330 1327 1324 1321 1317 1314 1310 1307 1303 1299 1295 1291 1287 1284 1280 1276 1272 1269 1265 1261 1258 1254 1251 1247 1244 1241 1238 1236 1233 1231 1229 1227 1225 1223 1221 1220 1218 1217 1216 1216 1215 1215 1214 1214 1214 1214 1214 1214 1214 1215 1216 1217 1219 1220 1221 1222 1223 1224 1226 1227 1229 1232 1234 1237 1240 1243 1246 1249 1252 1255 1258 1261 1264 1267 1270 1273 1276 1279
1347 1345 1343 1340 1337 1335 1332 1330 1327 1324 1321 1318 1314 1311 1307 1304 1301 1297 1293 1290 1286 1282 1278 1275 1271 1268 1264 1261 1257 1253 1250 1247 1243 1240 1238 1235 1233 1230 1228 1226 1224 1223 1221 1220 1219 1217 1217 1216 1216 1215 1215 1215 1215 1215 1215 1216 1217 1218 1219 1220 1222 1223 1224 1225 1226 1227 1229 1231 1233 1235 1237 1240 1243 1247 1250 1253 1256 1259 1262 1265 1268 1271 1274 1276 1279
1346 1344 1342 1339 1336 1334 1331 1329 1326 1324 1321 1318 1315 1311 1308 1306 1302 1299 1295 1292 1288 1285 1281 1278 1274 1271 1268 1265 1261 1258 1254 1251 1247 1244 1242 1239 1236 1234 1231 1228 1226 1225 1223 1222 1221 1219 1218 1218 1217 1217 1217 1217 1217 1217 1217 1218 1219 1220 1221 1222 1223 1224 1225 1226 1227 1228 1230 1232 1234 1236 1239 1241 1245 1248 1251 1254 1257 1260 1263 1266 1269 1272 1275 1277 1280
1345 1343 1341 1338 1336 1333 1331 1328 1326 1323 1321 1318 1315 1312 1309 1307 1303 1300 1297 1294 1291 1287 1284 1280 1277 1274 1271 1268 1265 1262 1259 1255 1252 1249 1247 1244 1241 1239 1236 1233 1231 1229 1227 1225 1224 1222 1221 1220 1220 1219 1219 1219 1219 1219 1219 1220 1221 1221 1222 1223 1224 1225 1226 1227 1228 1230 1232 1234 1236 1239 1241 1244 1247 1250 1253 1256 1259 1261 1264 1267 1270 1273 1275 1278 1280
1344 1342 1339 1337 1335 1333 1330 1328 1326 1323 1321 1318 1316 1313 1310 1307 1304 1301 1298 1296 1293 1290 1287 1283 1280 1277 1274 1271 1268 1266 1263 1260 1257 1255 1252 1249 1247 1244 1242 1240 1237 1235 1233 1231 1229 1228 1226 1225 1224 1224 1223 1223 1223 1223 1223 1223 1223 1224 1224 1225 1226 1227 1228 1229 1231 1233 1235 1237 1240 1243 1246 1248 1251 1253 1256 1258 1261 1263 1266 1269 1271 1274 1276 1278 1280
1343 1340 1338 1336 1334 1332 1330 1328 1326 1323 1321 1318 1316 1313 1311 1308 1305 1302 1300 1297 1294 1292 1289 1286 1284 1281 1278 1275 1272 1270 1267 1265 1262 1260 1257 1255 1252 1250 1248 1246 1243 1241 1239 1237 1236 1234 1233 1232 1230 1229 1229 1228 1228 1228 1228 1228 1228 1229 1229 1229 1230 1231 1232 1234 1236 1238 1240 1243 1245 1248 1250 1252 1254 1256 1259 1261 1263 1265 1268 1270 1272 1275 1277 1279 1281